This is the latest recevied weather packets stored in our database for station/object SP1BMW-13. If no packets are shown the sender has not sent any weather packets the latest 10 day(s).
| Time | Temp. | Humidity | Pressure | Rain* | Wind** | Luminosity | Snow |
|---|---|---|---|---|---|---|---|
| 1787411943 | 20.56° C | 53% | 1011.3 hPa | 0 mm | 0.89 m/s, 142° | 354 W/m² | - |
| 1787411823 | 21.11° C | 52% | 1011 hPa | 0 mm | 1.79 m/s, 229° | 360 W/m² | - |
| 1787411763 | 21.11° C | 51% | 1011.2 hPa | 0 mm | 2.24 m/s, 270° | 137 W/m² | - |
| 1787411703 | 21.11° C | 52% | 1011.1 hPa | 0 mm | 1.79 m/s, 233° | 147 W/m² | - |
| 1787411643 | 21.11° C | 51% | 1011.2 hPa | 0 mm | 2.68 m/s, 157° | 160 W/m² | - |
| 1787411583 | 21.11° C | 52% | 1011.1 hPa | 0 mm | 1.34 m/s, 248° | 408 W/m² | - |
| 1787411523 | 21.11° C | 52% | 1011.3 hPa | 0 mm | 2.24 m/s, 260° | 348 W/m² | - |
| 1787411463 | 20.56° C | 51% | 1011.1 hPa | 0 mm | 2.24 m/s, 248° | 213 W/m² | - |
| 1787411403 | 20.56° C | 53% | 1011.4 hPa | 0 mm | 1.34 m/s, 161° | 315 W/m² | - |
| 1787411343 | 20.56° C | 54% | 1011 hPa | 0 mm | 0.89 m/s, 279° | 467 W/m² | - |
| 1787411283 | 20.56° C | 54% | 1011.3 hPa | 0 mm | 1.79 m/s, 229° | 440 W/m² | - |
| 1787411223 | 20.56° C | 54% | 1011.1 hPa | 0 mm | 1.79 m/s, 251° | 335 W/m² | - |
| 1787411163 | 20.56° C | 55% | 1011.2 hPa | 0 mm | 0.89 m/s, 139° | 402 W/m² | - |
| 1787411105 | 20.56° C | 54% | 1011.2 hPa | 0 mm | 1.34 m/s, 250° | 315 W/m² | - |
| 1787411042 | 20.56° C | 54% | 1011.1 hPa | 0 mm | 2.24 m/s, 273° | 317 W/m² | - |
| 1787410982 | 20.56° C | 54% | 1011 hPa | 0 mm | 1.79 m/s, 244° | 142 W/m² | - |
| 1787410922 | 20.56° C | 54% | 1011.1 hPa | 0 mm | 0.45 m/s, 239° | 146 W/m² | - |
| 1787410862 | 20.56° C | 53% | 1011.1 hPa | 0 mm | 2.68 m/s, 244° | 389 W/m² | - |
| 1787410802 | 20.56° C | 54% | 1011.2 hPa | 0 mm | 1.34 m/s, 109° | 158 W/m² | - |
| 1787410743 | 20.56° C | 53% | 1011.1 hPa | 0 mm | 2.24 m/s, 239° | 174 W/m² | - |
| 1787410682 | 20.56° C | 53% | 1011.1 hPa | 0 mm | 0.89 m/s, 236° | 183 W/m² | - |
| 1787410622 | 20.56° C | 52% | 1010.9 hPa | 0 mm | 3.13 m/s, 252° | 187 W/m² | - |
| 1787410562 | 20.56° C | 53% | 1011.2 hPa | 0 mm | 0.45 m/s, 313° | 260 W/m² | - |
| 1787410502 | 20.56° C | 53% | 1011 hPa | 0 mm | 1.34 m/s, 134° | 201 W/m² | - |
| 1787410442 | 20.56° C | 52% | 1011.1 hPa | 0 mm | 2.68 m/s, 222° | 229 W/m² | - |
* Rain latest hour (hover to see other rain measurements)
** Current wind speed in m/s (hover to see current wind gust speed)